Zurück zum Katalog

OPS 4682 DEB

AktivPO
NORAD 38374·DEBRIS·🇺🇸 United States

Gestartet Apr 3, 1965 von Vandenberg Space Force Base

Loading…

Nächste Überflüge (nächste 24 Stunden)

TLE

AktuellSource: Space-Track

Epoche: Sep 14, 2026, 02:00 UTC

1 38374U 65027CB  26257.08342918  .00000857  00000-0  27681-2 0  9998
2 38374  90.2552  16.0773 0021836 344.7259  15.3202 13.01370153624197

Verfolge OPS 4682 DEB in Echtzeit mit AllMySat

Download on the App Store